Regional Weather Roundup
Issued by NWS

Current Version | Previous Version | Text Only | Print | Product List | Glossary On
Versions: 1 2 3 4 5 6 7 8 9 10 11 12 13 14 15 16 17 18 19 20 21 22 23 24 25 26 27 28 29 30 31 32 33 34 35 36 37 38 39 40 41 42 43 44 45 46 47 48 49 50
000
ASUS43 KOAX 060610
RWRNE

WEATHER ROUNDUP FOR NEBRASKA
NATIONAL WEATHER SERVICE OMAHA NE
1200 AM CST FRI DEC 06 2019

NOTES: SATELLITE DATA IS BEING USED TO AUGMENT CLOUD COVER ABOVE
       12000 FEET.
       "FAIR" INDICATES FEW OR NO CLOUDS BELOW 12,000 FEET WITH NO
       SIGNIFICANT WEATHER AND/OR OBSTRUCTIONS TO VISIBILITY.


NEZ001>004-019>022-054>056-060700-
NEBRASKA PANHANDLE

CITY           SKY/WX    TMP DP  RH WIND       PRES   REMARKS
SCOTTSBLUFF    CLOUDY    29  29 100 SE5       30.29R FOG     WCI  24
6HR MIN TEMP:  25; 6HR MAX TEMP:  33;

ALLIANCE       CLOUDY    29  27  92 CALM      30.26F
6HR MIN TEMP:  29; 6HR MAX TEMP:  32;

CHADRON        CLOUDY    32  28  85 S5        30.28S WCI  27
6HR MIN TEMP:  31; 6HR MAX TEMP:  33;

GORDON         CLOUDY    31  29  93 CALM      30.27R
6HR MIN TEMP:  31; 6HR MAX TEMP:  33;

KIMBALL        MOCLDY    24  23  93 CALM      30.26R
SIDNEY         FOG       27  25  92 NE5       30.27R VSB 1/2 WCI  22
6HR MIN TEMP:  24; 6HR MAX TEMP:  32;

$$

NEZ057>060-069>072-079>082-060700-
SOUTHWEST NEBRASKA

CITY           SKY/WX    TMP DP  RH WIND       PRES   REMARKS
NORTH PLATTE   CLOUDY    33  29  85 N13G20    30.30R WCI  24
6HR MIN TEMP:  33; 6HR MAX TEMP:  38;

IMPERIAL       CLOUDY    32  27  81 N15       30.29R WCI  22
6HR MIN TEMP:  32; 6HR MAX TEMP:  38;

LEXINGTON      CLOUDY    33  30  90 N13       30.28R WCI  23
MCCOOK         CLOUDY    35  30  82 N16       30.28R WCI  25
6HR MIN TEMP:  35; 6HR MAX TEMP:  45;

OGALLALA       CLOUDY    33  32  94 N7        30.29S WCI  27
$$

NEZ005>010-023>029-035>040-094-060700-
NORTH CENTRAL NEBRASKA

CITY           SKY/WX    TMP DP  RH WIND       PRES   REMARKS
VALENTINE      CLOUDY    30  25  81 NE5       30.31R WCI  25
6HR MIN TEMP:  30; 6HR MAX TEMP:  34;

AINSWORTH      CLOUDY    29  29  99 N7        30.31R WCI  22
BROKEN BOW     CLOUDY    31  24  75 N15       30.28R WCI  20
6HR MIN TEMP:  31; 6HR MAX TEMP:  37;

O`NEILL        CLOUDY    30  26  84 N13       30.31R WCI  20
ORD            CLOUDY    30  25  81 N12       30.29R WCI  20
6HR MIN TEMP:  29; 6HR MAX TEMP:  37;

THEDFORD       CLOUDY    31  28  86 CALM      30.30S
$$

NEZ041-046>049-061>064-073>077-083>087-060700-
SOUTH CENTRAL NEBRASKA

CITY           SKY/WX    TMP DP  RH WIND       PRES   REMARKS
GRAND ISLAND   CLOUDY    32  26  78 N20       30.28R WCI  20
6HR MIN TEMP:  32; 6HR MAX TEMP:  40;

AURORA         CLOUDY    33  30  89 N21       30.26R WCI  21
HASTINGS       CLOUDY    32  28  85 N20G30    30.26R WCI  20
6HR MIN TEMP:  32; 6HR MAX TEMP:  43;

HEBRON         CLOUDY    36  32  85 N18G24    30.23R WCI  26
HOLDREGE       CLOUDY    33  31  91 N14       30.26R WCI  23
KEARNEY        CLOUDY    31  28  89 N20       30.27R WCI  19
YORK           CLOUDY    32  28  86 N18G29    30.25R WCI  20
$$

NEZ011>018-030>034-042>045-060700-
NORTHEAST NEBRASKA

CITY           SKY/WX    TMP DP  RH WIND       PRES   REMARKS
NORFOLK        CLOUDY    31  24  75 N16       30.27R WCI  20
6HR MIN TEMP:  31; 6HR MAX TEMP:  37;

ALBION         CLOUDY    31  26  83 N17       30.27R WCI  19
BLAIR          CLOUDY    32  28  85 N21G26    30.21R WCI  20
COLUMBUS       CLOUDY    31  27  85 N13       30.28R WCI  21
FREMONT        CLOUDY    33  29  86 N18       30.25R WCI  22
TEKAMAH        CLOUDY    32  26  78 N24       30.25R WCI  19
6HR MIN TEMP:  32; 6HR MAX TEMP:  42;

WAYNE          CLOUDY    30  26  85 N12G17    30.27R WCI  21
$$

NEZ050>053-065>068-078-088>093-060700-
SOUTHEAST NEBRASKA

CITY           SKY/WX    TMP DP  RH WIND       PRES   REMARKS
LINCOLN        CLOUDY    35  28  75 N21       30.24R WCI  24
6HR MIN TEMP:  35; 6HR MAX TEMP:  48;

OMAHA EPPLEY   CLOUDY    33  29  85 N20G29    30.22R WCI  21
6HR MIN TEMP:  33; 6HR MAX TEMP:  47;

BEATRICE       CLOUDY    38  32  81 N24G30    30.20R WCI  26
FALLS CITY     FAIR      39  33  79 N15G29    30.13R WCI  31
6HR MIN TEMP:  39; 6HR MAX TEMP:  53;

NEBRASKA CITY  CLOUDY    37  34  89 N16       30.16R WCI  27
PLATTSMOUTH    CLOUDY    35  32  88 N14G20    30.19R WCI  26
$$

NEZ044-045-051>053-067-060700-
OMAHA AREA

CITY           SKY/WX    TMP DP  RH WIND       PRES   REMARKS
OMAHA EPPLEY   CLOUDY    33  29  85 N20G29    30.22R WCI  21
6HR MIN TEMP:  33; 6HR MAX TEMP:  47;

BLAIR          CLOUDY    32  28  85 N21G26    30.21R WCI  20
FREMONT        CLOUDY    33  29  86 N18       30.25R WCI  22
MILLARD        CLOUDY    35  28  76 NW12G18   30.23R WCI  27
OFFUTT AFB     CLOUDY    36  28  75 N14G20    30.22R WCI  27
PLATTSMOUTH    CLOUDY    35  32  88 N14G20    30.19R WCI  26
WAHOO          CLOUDY    33  29  84 N22G28    30.24R WCI  21
$$



USA.gov is the U.S. government's official web portal to all federal, state and local government web resources and services.